• In Belgien
  • Länderverzeichnis
  • Für 7 Tage
  • Wassertemperatur
  • Satellitenkarten
  • Wetterkarte
  • Widgets
  • user-avatar
    Anmelden

    Stündliche Wetter Kozani

    Heute, 21 Oktober, Samstag

    Zeit Temperatur Niederschläge Wind Luftdruck Luftfeuchtigkeit
    00:00 +15°C° 0 mm 1 m/S 706 mmHg 66%
    01:00 +15°C° 0 mm 1 m/S 706 mmHg 68%
    02:00 +14°C° 0 mm 1 m/S 706 mmHg 69%
    03:00 +14°C° 0 mm 1 m/S 706 mmHg 71%
    04:00 +14°C° 0 mm 1 m/S 706 mmHg 72%
    05:00 +14°C° 0 mm 1 m/S 706 mmHg 71%
    06:00 +15°C° 0 mm 1 m/S 706 mmHg 70%
    07:00 +16°C° 0 mm 1 m/S 706 mmHg 65%
    08:00 +19°C° 0 mm 1 m/S 706 mmHg 58%
    09:00 +21°C° 0 mm 1 m/S 707 mmHg 51%
    10:00 +23°C° 0 mm 1 m/S 707 mmHg 44%
    11:00 +23°C° 0 mm 1 m/S 707 mmHg 41%
    12:00 +24°C° 0 mm 1 m/S 706 mmHg 39%
    13:00 +25°C° 0 mm 1 m/S 706 mmHg 36%
    14:00 +24°C° 0 mm 1 m/S 706 mmHg 38%
    15:00 +24°C° 0 mm 1 m/S 706 mmHg 40%
    16:00 +23°C° 0 mm 1 m/S 706 mmHg 42%
    17:00 +22°C° 0 mm 1 m/S 705 mmHg 45%
    18:00 +20°C° 0 mm 1 m/S 705 mmHg 49%
    19:00 +19°C° 0 mm 1 m/S 705 mmHg 52%
    20:00 +18°C° 0 mm 1 m/S 705 mmHg 54%
    21:00 +16°C° 0 mm 1 m/S 705 mmHg 57%
    22:00 +16°C° 0 mm 1 m/S 705 mmHg 59%
    23:00 +15°C° 0 mm 1 m/S 705 mmHg 61%

    Morgen, 22 Oktober, Sonntag

    Zeit Temperatur Niederschläge Wind Luftdruck Luftfeuchtigkeit
    00:00 +15°C° 0 mm 1 m/S 705 mmHg 62%
    01:00 +15°C° 0 mm 1 m/S 704 mmHg 64%
    02:00 +14°C° 0 mm 1 m/S 704 mmHg 66%
    03:00 +14°C° 0 mm 1 m/S 704 mmHg 67%
    04:00 +13°C° 0 mm 1 m/S 704 mmHg 69%
    05:00 +14°C° 0 mm 1 m/S 704 mmHg 68%
    06:00 +14°C° 0 mm 1 m/S 704 mmHg 66%
    07:00 +14°C° 0 mm 1 m/S 704 mmHg 65%
    08:00 +18°C° 0 mm 1 m/S 704 mmHg 55%
    09:00 +20°C° 0 mm 1 m/S 705 mmHg 45%
    10:00 +22°C° 0 mm 1 m/S 705 mmHg 36%
    11:00 +23°C° 0 mm 1 m/S 704 mmHg 33%
    12:00 +24°C° 0 mm 1 m/S 704 mmHg 30%
    13:00 +25°C° 0 mm 1 m/S 704 mmHg 27%
    14:00 +24°C° 0 mm 1 m/S 703 mmHg 31%
    15:00 +24°C° 0 mm 1 m/S 703 mmHg 34%
    16:00 +23°C° 0 mm 1 m/S 703 mmHg 38%
    17:00 +21°C° 0 mm 1 m/S 703 mmHg 42%
    18:00 +20°C° 0 mm 1 m/S 702 mmHg 47%
    19:00 +18°C° 0 mm 1 m/S 702 mmHg 51%
    20:00 +18°C° 0 mm 1 m/S 702 mmHg 54%
    21:00 +16°C° 0 mm 1 m/S 702 mmHg 57%
    22:00 +16°C° 0 mm 1 m/S 702 mmHg 59%
    23:00 +15°C° 0 mm 1 m/S 702 mmHg 61%

    übermorgen, 23 Oktober, Montag

    Zeit Temperatur Niederschläge Wind Luftdruck Luftfeuchtigkeit
    00:00 +15°C° 0 mm 1 m/S 701 mmHg 62%
    01:00 +15°C° 0 mm 1 m/S 701 mmHg 63%
    02:00 +15°C° 0 mm 1 m/S 700 mmHg 64%
    03:00 +14°C° 0 mm 1 m/S 700 mmHg 64%
    04:00 +14°C° 0 mm 1 m/S 699 mmHg 65%
    05:00 +15°C° 0 mm 1 m/S 699 mmHg 65%
    06:00 +15°C° 0 mm 1 m/S 699 mmHg 66%
    07:00 +15°C° 0 mm 1 m/S 698 mmHg 66%
    08:00 +16°C° 0,4 mm 1 m/S 698 mmHg 65%
    09:00 +17°C° 0,4 mm 2 m/S 698 mmHg 63%
    10:00 +17°C° 0,4 mm 2 m/S 698 mmHg 61%
    11:00 +18°C° 0,7 mm 2 m/S 697 mmHg 61%
    12:00 +18°C° 0,7 mm 2 m/S 697 mmHg 60%
    13:00 +19°C° 0,7 mm 2 m/S 696 mmHg 59%
    14:00 +18°C° 0,9 mm 2 m/S 696 mmHg 60%
    15:00 +18°C° 0,9 mm 2 m/S 695 mmHg 61%
    16:00 +17°C° 0,9 mm 2 m/S 695 mmHg 62%
    17:00 +16°C° 1,2 mm 2 m/S 695 mmHg 68%
    18:00 +15°C° 1,2 mm 1 m/S 694 mmHg 74%
    19:00 +13°C° 1,2 mm 1 m/S 694 mmHg 80%
    20:00 +13°C° 1,1 mm 1 m/S 694 mmHg 81%
    21:00 +13°C° 1,1 mm 1 m/S 694 mmHg 82%
    22:00 +12°C° 1,1 mm 2 m/S 694 mmHg 83%
    23:00 +12°C° 0,6 mm 2 m/S 694 mmHg 83%

    24 Oktober, Dienstag

    Zeit Temperatur Niederschläge Wind Luftdruck Luftfeuchtigkeit
    00:00 +12°C° 0,6 mm 2 m/S 694 mmHg 83%
    01:00 +12°C° 0,6 mm 2 m/S 694 mmHg 83%
    02:00 +10°C° 0,6 mm 2 m/S 693 mmHg 84%
    03:00 +10°C° 0,6 mm 2 m/S 693 mmHg 85%
    04:00 +9°C° 0,6 mm 2 m/S 693 mmHg 86%
    05:00 +9°C° 0,4 mm 2 m/S 693 mmHg 85%
    06:00 +9°C° 0,4 mm 2 m/S 694 mmHg 84%
    07:00 +9°C° 0,4 mm 2 m/S 694 mmHg 83%
    08:00 +10°C° 0,2 mm 3 m/S 694 mmHg 77%
    09:00 +11°C° 0,2 mm 3 m/S 694 mmHg 70%
    10:00 +12°C° 0,2 mm 3 m/S 695 mmHg 64%
    11:00 +13°C° 0,3 mm 3 m/S 695 mmHg 63%
    12:00 +13°C° 0,3 mm 3 m/S 695 mmHg 61%
    13:00 +14°C° 0,3 mm 3 m/S 695 mmHg 59%
    14:00 +13°C° 0,3 mm 3 m/S 695 mmHg 62%
    15:00 +12°C° 0,3 mm 3 m/S 695 mmHg 65%
    16:00 +12°C° 0,3 mm 3 m/S 695 mmHg 68%
    17:00 +11°C° 0 mm 3 m/S 695 mmHg 71%
    18:00 +10°C° 0 mm 3 m/S 696 mmHg 75%
    19:00 +9°C° 0 mm 2 m/S 696 mmHg 79%
    20:00 +9°C° 0 mm 2 m/S 696 mmHg 80%
    21:00 +8°C° 0 mm 2 m/S 697 mmHg 82%
    22:00 +8°C° 0 mm 2 m/S 697 mmHg 83%
    23:00 +8°C° 0,2 mm 2 m/S 697 mmHg 83%

    25 Oktober, Mittwoch

    Zeit Temperatur Niederschläge Wind Luftdruck Luftfeuchtigkeit
    00:00 +8°C° 0,2 mm 2 m/S 698 mmHg 82%
    01:00 +8°C° 0,2 mm 2 m/S 698 mmHg 82%
    02:00 +8°C° 0,3 mm 2 m/S 698 mmHg 82%
    03:00 +9°C° 0,3 mm 2 m/S 698 mmHg 83%
    04:00 +9°C° 0,3 mm 2 m/S 698 mmHg 83%
    05:00 +9°C° 0,5 mm 3 m/S 699 mmHg 84%
    06:00 +9°C° 0,5 mm 3 m/S 699 mmHg 85%
    07:00 +9°C° 0,5 mm 3 m/S 700 mmHg 86%
    08:00 +9°C° 0,5 mm 3 m/S 701 mmHg 84%
    09:00 +10°C° 0,5 mm 3 m/S 701 mmHg 82%
    10:00 +10°C° 0,5 mm 4 m/S 702 mmHg 80%
    11:00 +10°C° 0,4 mm 3 m/S 702 mmHg 79%
    12:00 +11°C° 0,4 mm 3 m/S 703 mmHg 78%
    13:00 +11°C° 0,4 mm 3 m/S 703 mmHg 77%
    14:00 +11°C° 0,3 mm 3 m/S 703 mmHg 78%
    15:00 +11°C° 0,3 mm 3 m/S 704 mmHg 79%
    16:00 +10°C° 0,3 mm 3 m/S 704 mmHg 80%
    17:00 +10°C° 0,1 mm 3 m/S 705 mmHg 81%
    18:00 +10°C° 0,1 mm 2 m/S 706 mmHg 82%
    19:00 +9°C° 0,1 mm 2 m/S 707 mmHg 84%
    20:00 +9°C° 0 mm 2 m/S 707 mmHg 84%
    21:00 +9°C° 0 mm 2 m/S 708 mmHg 84%
    22:00 +9°C° 0 mm 2 m/S 708 mmHg 84%
    23:00 +9°C° 0 mm 2 m/S 709 mmHg 85%

    26 Oktober, Donnerstag

    Zeit Temperatur Niederschläge Wind Luftdruck Luftfeuchtigkeit
    00:00 +9°C° 0 mm 2 m/S 709 mmHg 86%
    01:00 +9°C° 0 mm 1 m/S 709 mmHg 87%
    02:00 +9°C° 0 mm 1 m/S 709 mmHg 87%
    03:00 +8°C° 0 mm 2 m/S 710 mmHg 87%
    04:00 +8°C° 0 mm 2 m/S 710 mmHg 87%
    05:00 +8°C° 0 mm 2 m/S 710 mmHg 85%
    06:00 +8°C° 0 mm 2 m/S 710 mmHg 84%
    07:00 +9°C° 0 mm 1 m/S 711 mmHg 83%
    08:00 +11°C° 0 mm 1 m/S 711 mmHg 74%
    09:00 +12°C° 0 mm 1 m/S 711 mmHg 66%
    10:00 +14°C° 0 mm 1 m/S 712 mmHg 58%
    11:00 +15°C° 0 mm 1 m/S 711 mmHg 55%
    12:00 +15°C° 0 mm 1 m/S 711 mmHg 52%
    13:00 +16°C° 0 mm 1 m/S 711 mmHg 49%
    14:00 +16°C° 0 mm 1 m/S 710 mmHg 51%
    15:00 +15°C° 0 mm 1 m/S 710 mmHg 54%
    16:00 +15°C° 0 mm 1 m/S 710 mmHg 56%
    17:00 +14°C° 0 mm 1 m/S 710 mmHg 60%
    18:00 +12°C° 0 mm 1 m/S 710 mmHg 64%
    19:00 +11°C° 0 mm 1 m/S 710 mmHg 68%
    20:00 +11°C° 0 mm 1 m/S 710 mmHg 69%
    21:00 +11°C° 0 mm 1 m/S 710 mmHg 70%
    22:00 +10°C° 0 mm 1 m/S 710 mmHg 70%
    23:00 +10°C° 0 mm 1 m/S 709 mmHg 71%
    Mehr zeigen